Weather History for Flint, MI

Change the Weather History Date:

Thursday, March 20, 2014

  Actual Average Record
Temperature  
Mean Temperature 34 °F 36 °F  
Max Temperature 39 °F 45 °F 84 °F (2012)
Min Temperature 28 °F 26 °F 2 °F (1923)
Degree Days  
Heating Degree Days 31 29  
Month to date heating degree days 832 660  
Since 1 July heating degree days 6353 5748  
Cooling Degree Days 0 0  
Month to date cooling degree days 0 0  
Year to date cooling degree days 0 0  
Moisture  
Dew Point 26 °F    
Average Humidity 68    
Maximum Humidity 82    
Minimum Humidity 54    
Precipitation  
Precipitation T in 0.06 in 0.95 in (1996)
Month to date precipitation 0.79 1.13  
Year to date precipitation 4.80 4.24  
Snow  
Snow T in 0.20 in 8.10 in (1996)
Month to date snowfall 8.6 4.9  
Since 1 July snowfall 81.8 43.5  
Snow Depth T in    
Sea Level Pressure  
Sea Level Pressure 29.91 in    
Wind  
Wind Speed 15 mph (West)    
Max Wind Speed 29 mph    
Max Gust Speed 34 mph    
Visibility 9 miles    
Events Snow    
T = Trace of Precipitation, MM = Missing Value Source: NWS Daily Summary

Daily Weather History Graph

Daily Weather History Graph

Search for Another Location

Airport:

Trip Planner

Search our weather history database for the weather conditions in past years. The results will help you decide how hot, cold, wet, or windy it might be!

Date:

Astronomy

Mar. 20, 2014 Rise Set
Actual Time 7:38 AM EDT 7:47 PM EDT
Civil Twilight 7:09 AM EDT 8:15 PM EDT
Nautical Twilight 6:36 AM EDT 8:48 PM EDT
Astronomical Twilight 6:03 AM EDT 9:22 PM EDT
Moon No Moon Rise 9:38 AM EDT (3/20)
Length of Visible Light 13h 05m
Length of Day
12h 09m
Waning Gibbous, 84% of the Moon is Illuminated
Mar 20
Waning Gibbous
Mar 23
Last Quarter
Mar 30
New
Apr 7
First Quarter
Apr 15
Full

Hourly Weather History & Observations

Time (EDT) Temp. Windchill Dew Point Humidity Pressure Visibility Wind Dir Wind Speed Gust Speed Precip Events Conditions
12:11 AM 35.1 °F 25.2 °F 30.9 °F 85% 29.77 in 5.0 mi West 16.1 mph 25.3 mph N/A   Overcast
12:42 AM 36.0 °F 26.3 °F 30.9 °F 82% 29.78 in 6.0 mi West 16.1 mph 25.3 mph N/A   Haze
12:49 AM 35.6 °F 25.2 °F 30.2 °F 81% 29.78 in 6.0 mi West 18.4 mph 28.8 mph N/A   Haze
12:53 AM 36.0 °F 25.0 °F 30.9 °F 82% 29.80 in 6.0 mi West 20.7 mph 27.6 mph N/A   Haze
1:53 AM 35.1 °F 25.5 °F 30.9 °F 85% 29.81 in 4.0 mi West 15.0 mph - 0.00 in Snow Light Snow
2:53 AM 35.1 °F 26.4 °F 30.0 °F 82% 29.82 in 10.0 mi West 12.7 mph - 0.00 in   Overcast
3:53 AM 35.1 °F 25.9 °F 30.0 °F 82% 29.82 in 10.0 mi West 13.8 mph - N/A   Overcast
4:51 AM 33.8 °F 22.5 °F 28.4 °F 81% 29.81 in 10.0 mi West 19.6 mph 26.5 mph N/A   Overcast
4:53 AM 34.0 °F 23.8 °F 28.9 °F 82% 29.83 in 10.0 mi West 16.1 mph 26.5 mph N/A   Overcast
5:53 AM 34.0 °F 23.0 °F 28.0 °F 79% 29.85 in 9.0 mi West 18.4 mph - 0.00 in   Overcast
6:00 AM 33.1 °F 22.2 °F 28.0 °F 82% 29.84 in 10.0 mi West 17.3 mph 25.3 mph N/A   Overcast
6:08 AM 33.1 °F 23.0 °F 28.0 °F 82% 29.84 in 9.0 mi West 15.0 mph - N/A   Overcast
6:53 AM 33.1 °F 22.2 °F 27.0 °F 78% 29.88 in 10.0 mi West 17.3 mph - N/A   Overcast
7:53 AM 33.1 °F 21.2 °F 26.1 °F 75% 29.90 in 10.0 mi West 20.7 mph 31.1 mph N/A   Overcast
8:38 AM 33.1 °F 22.6 °F 25.0 °F 72% 29.88 in 10.0 mi West 16.1 mph 26.5 mph N/A   Overcast
8:53 AM 33.1 °F 21.9 °F 26.1 °F 75% 29.91 in 10.0 mi West 18.4 mph 25.3 mph N/A   Overcast
9:46 AM 34.0 °F 23.0 °F 27.0 °F 75% 29.90 in 8.0 mi West 18.4 mph 25.3 mph N/A   Overcast
9:53 AM 34.0 °F 22.4 °F 27.0 °F 75% 29.93 in 9.0 mi West 20.7 mph 25.3 mph N/A   Overcast
10:25 AM 34.0 °F 22.1 °F 27.0 °F 75% 29.92 in 8.0 mi West 21.9 mph 27.6 mph N/A   Overcast
10:53 AM 35.1 °F 23.5 °F 27.0 °F 72% 29.95 in 10.0 mi West 21.9 mph 27.6 mph N/A   Overcast
11:53 AM 35.1 °F 23.3 °F 26.1 °F 70% 29.96 in 10.0 mi WNW 23.0 mph - N/A   Overcast
12:53 PM 36.0 °F 25.0 °F 25.0 °F 64% 29.95 in 10.0 mi West 20.7 mph 31.1 mph N/A   Overcast
1:53 PM 35.1 °F 23.3 °F 24.1 °F 64% 29.96 in 10.0 mi West 23.0 mph 32.2 mph N/A   Overcast
2:53 PM 37.0 °F 26.2 °F 24.1 °F 59% 29.96 in 10.0 mi West 21.9 mph 31.1 mph N/A   Overcast
3:53 PM 36.0 °F 25.6 °F 24.1 °F 62% 29.96 in 10.0 mi WNW 18.4 mph 27.6 mph N/A   Overcast
4:53 PM 37.0 °F 27.0 °F 23.0 °F 57% 29.98 in 10.0 mi West 18.4 mph 25.3 mph N/A   Overcast
5:53 PM 36.0 °F 26.0 °F 23.0 °F 59% 29.99 in 10.0 mi West 17.3 mph 24.2 mph N/A   Overcast
6:53 PM 35.1 °F 25.9 °F 21.9 °F 59% 30.01 in 10.0 mi WNW 13.8 mph - N/A   Overcast
7:53 PM 35.1 °F 27.4 °F 21.9 °F 59% 30.02 in 10.0 mi WNW 10.4 mph - N/A   Overcast
8:53 PM 33.1 °F 26.9 °F 21.9 °F 64% 30.04 in 10.0 mi NW 6.9 mph - N/A   Overcast
9:53 PM 30.0 °F 25.2 °F 21.0 °F 69% 30.05 in 10.0 mi WSW 4.6 mph - N/A   Mostly Cloudy
10:53 PM 30.0 °F 25.2 °F 21.9 °F 72% 30.06 in 10.0 mi West 4.6 mph - N/A   Overcast
11:53 PM 28.9 °F 23.9 °F 21.0 °F 72% 30.07 in 10.0 mi West 4.6 mph - N/A   Mostly Cloudy